Flag for U.S.A. Weather past 2 weeks in Jacksonville, Florida, U.S.A.

Now
84 °F

Mostly cloudy.


Feels Like: 88 °F
Forecast: 70 / 82 °F
Wind: 9 mph from Northeast

Location: Jacksonville Naval Air Station

Current Time: Oct 1, 2014 at 12:26:35 PM

Latest Report: Oct 1, 2014 at 12:00 PM


Visibility: 10 mi

Pressure: 29.98 "Hg

Humidity: 63%

Dew point: 70 °F

Location of JacksonvilleLocation

Historic Weather in Jacksonville — Graph

°F

Jacksonville temperature yesterday

Maximum temperature yesterday: 80 °F (at 5:53 PM)
Minimum temperature yesterday: 74 °F (at 7:53 AM)
Average temperature yesterday: 76 °F

Past Weeks' High & Low Weather Summary

 TemperatureHumidityPressure
High93 °F (Sep 18, 2:53 PM)91% (Sep 17, 4:53 AM)30.16 "Hg (Sep 17, 4:53 AM)
Low66 °F (Sep 25, 7:53 AM)32% (Sep 21, 4:53 PM)29.80 "Hg (Sep 30, 3:53 AM)
Average78 °F75%29.98 "Hg
* Reported Sep 16 10:53 AM — Oct 1 10:53 AM, Jacksonville, Weather by CustomWeather, © 2014

Note: Actual official high and low records may vary slightly from our data, if they occured in-between our weather recording intervals... More about our weather records

Advertising

Jacksonville weather history for previous 24 hours

 ConditionsComfort  
Time TempWeatherWind HumidityBarometerVisibility
10:53 AM
Oct 1
82 °FBroken clouds.8 mph67%29.96 "Hg10 mi
9:53 AM79 °FOvercast.8 mph74%29.95 "Hg10 mi
8:53 AM77 °FOvercast.7 mph77%29.93 "Hg10 mi
7:53 AM77 °FOvercast.6 mph77%29.92 "Hg10 mi
6:53 AM76 °FPassing clouds.7 mph80%29.90 "Hg10 mi
5:53 AM77 °FPartly cloudy.7 mph77%29.88 "Hg10 mi
4:53 AM77 °FOvercast.5 mph79%29.88 "Hg10 mi
3:53 AM78 °FMostly cloudy.7 mph74%29.87 "Hg10 mi
2:53 AM78 °FPassing clouds.8 mph74%29.87 "Hg10 mi
1:53 AM78 °FPassing clouds.8 mph71%29.88 "Hg10 mi
12:53 AM78 °FPassing clouds.8 mph69%29.88 "Hg10 mi
11:53 PM
Sep 30
77 °FPassing clouds.9 mph74%29.88 "Hg10 mi
10:53 PM77 °FPassing clouds.9 mph74%29.89 "Hg10 mi
9:53 PM77 °FPassing clouds.9 mph77%29.88 "Hg10 mi
8:53 PM78 °FPartly cloudy.8 mph74%29.88 "Hg10 mi
7:53 PM78 °FBroken clouds.5 mph74%29.86 "Hg10 mi
6:53 PM79 °FBroken clouds.8 mph69%29.85 "Hg10 mi
5:53 PM80 °FPartly sunny.8 mph67%29.84 "Hg10 mi
4:53 PM74 °FPartly sunny.8 mph85%29.83 "Hg10 mi
3:53 PM75 °FMore clouds than sun.10 mph85%29.83 "Hg10 mi
2:53 PM74 °FOvercast.10 mph88%29.84 "Hg9 mi
1:53 PM75 °FOvercast.12 mph85%29.85 "Hg9 mi
12:53 PM74 °FOvercast.9 mph88%29.87 "Hg9 mi
Weather by CustomWeather, © 2014

See weather overviewHow to use our weather pages